{"data":{"norad_id":64235,"epoch":"2026-09-20T21:18:08.935488Z","epoch_age_seconds":104351,"freshness":"FRESH","line1":"1 64235U 25119C   26263.88760342  .00125847  00000+0  96836-3 0  9996","line2":"2 64235  42.9998 112.5836 0001373 268.1992  91.8718 15.70867358 75949","mean_motion":15.70867358,"eccentricity":0.0001373,"inclination_deg":42.9998,"raan_deg":112.5836,"arg_perigee_deg":268.1992,"mean_anomaly_deg":91.8718,"bstar":0.00096836,"rev_number":7594,"period_min":91.669101956093,"perigee_km":355.49221417314,"apogee_km":357.34152266541,"semimajor_km":6734.5538684193,"source":"CELESTRAK","updated_at":"2026-09-21T09:00:35.276359Z"}}